ETD295 CYQX-EKCH

Flight info

Callsign ETD295
Flight time N/A
Altitude 37000
Route YQX DCT JOOPY DCT 49N050W/M079F370 51N040W 53N030W 54N020W DCT DOGAL/N0453F370 DCT BEXET/N0451F390 DCT MOLAK DCT MAC DCT SURAT DCT PETIL DCT TESPI
Aircraft A20N/M-SDE2E3FGHIRWXY/LB1

Departure

Time 2026-04-25 13:26
Airport Gander International Airport (CYQX)

Arrival

Time N/A
Airport Copenhagen Kastrup Airport (EKCH)
Time Latitude Longitude Altitude Speed Heading
2026-04-25 13:07 48.94673 -54.57215 466 ft 0 kts 195°
2026-04-25 13:20 48.94643 -54.57220 466 ft 7 kts 169°
2026-04-25 13:21 48.94626 -54.57175 465 ft 4 kts 99°
2026-04-25 13:21 48.94619 -54.57106 465 ft 10 kts 99°
2026-04-25 13:21 48.94585 -54.57015 464 ft 10 kts 146°
2026-04-25 13:21 48.94523 -54.56967 462 ft 11 kts 153°
2026-04-25 13:22 48.94425 -54.56892 460 ft 20 kts 153°
2026-04-25 13:22 48.94297 -54.56792 458 ft 21 kts 153°
2026-04-25 13:22 48.94170 -54.56692 454 ft 20 kts 152°
2026-04-25 13:23 48.93934 -54.56585 452 ft 15 kts 183°
2026-04-25 13:23 48.93835 -54.56613 451 ft 14 kts 191°
2026-04-25 13:23 48.93746 -54.56639 450 ft 13 kts 190°
2026-04-25 13:23 48.93654 -54.56665 449 ft 13 kts 190°
2026-04-25 13:24 48.93553 -54.56693 448 ft 19 kts 190°
2026-04-25 13:24 48.93408 -54.56734 447 ft 22 kts 191°
2026-04-25 13:24 48.93279 -54.56717 445 ft 11 kts 130°
2026-04-25 13:24 48.93272 -54.56659 445 ft 4 kts 95°
2026-04-25 13:25 48.93269 -54.56628 445 ft 2 kts 100°
2026-04-25 13:25 48.93261 -54.56575 434 ft 16 kts 102°
2026-04-25 13:25 48.93299 -54.56438 449 ft 12 kts 15°
2026-04-25 13:25 48.93437 -54.56395 448 ft 47 kts 11°
2026-04-25 13:26 48.93983 -54.56238 454 ft 110 kts 10°
2026-04-25 13:26 48.94877 -54.55969 688 ft 139 kts 11°
2026-04-25 13:26 48.95810 -54.55673 1496 ft 136 kts
2026-04-25 13:26 48.96740 -54.55476 2325 ft 134 kts
2026-04-25 13:27 48.97694 -54.55262 2953 ft 146 kts 14°
2026-04-25 13:27 48.98757 -54.54927 3350 ft 169 kts 15°
2026-04-25 13:27 48.99950 -54.54498 4044 ft 179 kts 17°
2026-04-25 13:27 49.01181 -54.54014 4840 ft 191 kts 18°
2026-04-25 13:28 49.02393 -54.53076 5418 ft 203 kts 43°
2026-04-25 13:28 49.02953 -54.51866 5684 ft 221 kts 63°
2026-04-25 13:28 49.03027 -54.48540 6463 ft 257 kts 101°
2026-04-25 13:28 49.02090 -54.46123 7268 ft 276 kts 123°
2026-04-25 13:29 49.00584 -54.44198 8113 ft 292 kts 142°
2026-04-25 13:29 48.98627 -54.43190 8890 ft 313 kts 168°
2026-04-25 13:29 48.96422 -54.43462 9646 ft 327 kts 194°
2026-04-25 13:30 48.92314 -54.46898 10607 ft 355 kts 197°
2026-04-25 13:30 48.89854 -54.47591 10850 ft 366 kts 174°
2026-04-25 13:30 48.87380 -54.46894 11410 ft 359 kts 152°
2026-04-25 13:31 48.82860 -54.43732 12833 ft 372 kts 161°
2026-04-25 13:31 48.80309 -54.42913 13499 ft 377 kts 162°
2026-04-25 13:31 48.77760 -54.42110 14136 ft 380 kts 163°
2026-04-25 13:31 48.75151 -54.41334 14777 ft 385 kts 165°
2026-04-25 13:32 48.72556 -54.40416 15370 ft 382 kts 154°
2026-04-25 13:32 48.70263 -54.38518 15972 ft 372 kts 135°
2026-04-25 13:32 48.68551 -54.35667 16551 ft 362 kts 115°
2026-04-25 13:32 48.67592 -54.32211 17095 ft 354 kts 97°
2026-04-25 13:33 48.67287 -54.28535 17656 ft 354 kts 89°
2026-04-25 13:33 48.67153 -54.24796 18164 ft 357 kts 88°
2026-04-25 13:33 48.67013 -54.21031 18663 ft 361 kts 89°
2026-04-25 13:33 48.66896 -54.18518 18997 ft 363 kts 90°
2026-04-25 13:34 48.66603 -54.13438 19647 ft 369 kts 91°
2026-04-25 13:34 48.66349 -54.09563 20153 ft 372 kts 91°
2026-04-25 13:34 48.66081 -54.05653 20645 ft 376 kts 92°
2026-04-25 13:34 48.65807 -54.01708 21124 ft 379 kts 92°
2026-04-25 13:35 48.65528 -53.97723 21612 ft 382 kts 92°
2026-04-25 13:35 48.65246 -53.93712 22100 ft 385 kts 92°
2026-04-25 13:35 48.64961 -53.89671 22577 ft 388 kts 92°
2026-04-25 13:35 48.64678 -53.85656 23048 ft 391 kts 92°
2026-04-25 13:36 48.64387 -53.81552 23437 ft 394 kts 92°
2026-04-25 13:36 48.64091 -53.77414 23830 ft 397 kts 92°
2026-04-25 13:36 48.63792 -53.73244 24206 ft 400 kts 92°
2026-04-25 13:36 48.63490 -53.69050 24588 ft 402 kts 92°
2026-04-25 13:37 48.63185 -53.64834 24957 ft 405 kts 92°
2026-04-25 13:37 48.62876 -53.60592 25317 ft 408 kts 92°
2026-04-25 13:37 48.62562 -53.56316 25675 ft 410 kts 92°
2026-04-25 13:37 48.62246 -53.52019 26030 ft 412 kts 92°
2026-04-25 13:38 48.61926 -53.47697 26368 ft 415 kts 92°
2026-04-25 13:38 48.61607 -53.43417 26704 ft 417 kts 92°
2026-04-25 13:38 48.61280 -53.39048 27033 ft 419 kts 92°
2026-04-25 13:38 48.60950 -53.34662 27371 ft 421 kts 91°
2026-04-25 13:39 48.60616 -53.30250 27678 ft 423 kts 91°
2026-04-25 13:39 48.60280 -53.25827 27991 ft 425 kts 91°
2026-04-25 13:39 48.59941 -53.21379 28299 ft 427 kts 91°
2026-04-25 13:39 48.59598 -53.16911 28601 ft 429 kts 91°
2026-04-25 13:40 48.59252 -53.12431 28901 ft 431 kts 91°
2026-04-25 13:40 48.58908 -53.07987 29208 ft 432 kts 91°
2026-04-25 13:40 48.58556 -53.03470 29502 ft 434 kts 91°
2026-04-25 13:40 48.58201 -52.98941 29765 ft 435 kts 92°
2026-04-25 13:41 48.57843 -52.94389 30033 ft 437 kts 92°
2026-04-25 13:41 48.57482 -52.89830 30355 ft 438 kts 92°
2026-04-25 13:41 48.57119 -52.85261 30613 ft 439 kts 92°
2026-04-25 13:41 48.56754 -52.80688 30933 ft 439 kts 93°
2026-04-25 13:42 48.56387 -52.76117 31244 ft 438 kts 93°
2026-04-25 13:42 48.56019 -52.71557 31554 ft 438 kts 93°
2026-04-25 13:42 48.55655 -52.67057 31857 ft 437 kts 94°
2026-04-25 13:42 48.55285 -52.62502 32148 ft 437 kts 94°
2026-04-25 13:43 48.54913 -52.57957 32440 ft 436 kts 94°
2026-04-25 13:43 48.54540 -52.53410 32717 ft 436 kts 94°
2026-04-25 13:43 48.54166 -52.48874 33007 ft 436 kts 94°
2026-04-25 13:43 48.53790 -52.44343 33296 ft 435 kts 95°
2026-04-25 13:44 48.53413 -52.39828 33527 ft 434 kts 95°
2026-04-25 13:44 48.53034 -52.35311 33713 ft 434 kts 95°
2026-04-25 13:44 48.52658 -52.30855 33889 ft 434 kts 95°
2026-04-25 13:44 48.52275 -52.26335 34074 ft 434 kts 95°
2026-04-25 13:45 48.52020 -52.23343 34179 ft 435 kts 95°
2026-04-25 13:45 48.51503 -52.17288 34377 ft 435 kts 95°
2026-04-25 13:45 48.51113 -52.12751 34515 ft 436 kts 95°
2026-04-25 13:45 48.50723 -52.08224 34665 ft 437 kts 95°
2026-04-25 13:46 48.50500 -52.03662 34807 ft 435 kts 87°
2026-04-25 13:46 48.50740 -51.99126 34937 ft 434 kts 79°
2026-04-25 13:46 48.51428 -51.94712 35059 ft 433 kts 71°
2026-04-25 13:46 48.52471 -51.90522 35203 ft 433 kts 68°
2026-04-25 13:47 48.53579 -51.86304 35315 ft 433 kts 68°
2026-04-25 13:47 48.54684 -51.82059 35425 ft 434 kts 68°
2026-04-25 13:47 48.55782 -51.77817 35559 ft 434 kts 68°
2026-04-25 13:47 48.56880 -51.73565 35673 ft 435 kts 68°
2026-04-25 13:48 48.57978 -51.69308 35790 ft 435 kts 68°
2026-04-25 13:48 48.59076 -51.65043 35898 ft 436 kts 68°
2026-04-25 13:48 48.60171 -51.60779 36017 ft 436 kts 68°
2026-04-25 13:48 48.61267 -51.56507 36122 ft 436 kts 68°
2026-04-25 13:49 48.62346 -51.52292 36236 ft 437 kts 68°
2026-04-25 13:49 48.64541 -51.43698 36324 ft 440 kts 68°
2026-04-25 13:50 48.66753 -51.35000 36317 ft 446 kts 68°
2026-04-25 13:50 48.68986 -51.26189 36316 ft 451 kts 69°
2026-04-25 13:51 48.71238 -51.17265 36318 ft 456 kts 69°
2026-04-25 13:51 48.73488 -51.08317 36317 ft 459 kts 69°
2026-04-25 13:52 48.75757 -50.99256 36313 ft 461 kts 69°
2026-04-25 13:52 48.78027 -50.90151 36308 ft 463 kts 69°
2026-04-25 13:53 48.80298 -50.81005 36309 ft 464 kts 69°
2026-04-25 13:53 48.82553 -50.71887 36312 ft 465 kts 69°
2026-04-25 13:54 48.84816 -50.62697 36306 ft 465 kts 69°
2026-04-25 13:54 48.87074 -50.53493 36311 ft 466 kts 70°
2026-04-25 13:55 48.89330 -50.44258 36306 ft 466 kts 70°
2026-04-25 13:55 48.91562 -50.35080 36310 ft 466 kts 70°
2026-04-25 13:56 48.93806 -50.25817 36304 ft 467 kts 70°
2026-04-25 13:56 48.96043 -50.16544 36302 ft 467 kts 70°
2026-04-25 13:57 48.98275 -50.07249 36298 ft 468 kts 70°
2026-04-25 13:57 49.00491 -49.98009 36301 ft 468 kts 70°
2026-04-25 13:58 49.02798 -49.88742 36316 ft 468 kts 69°
2026-04-25 13:58 49.05139 -49.79469 36310 ft 468 kts 69°
2026-04-25 13:59 49.07469 -49.70196 36313 ft 468 kts 69°
2026-04-25 13:59 49.09792 -49.60905 36310 ft 469 kts 69°
2026-04-25 14:00 49.12088 -49.51676 36312 ft 469 kts 69°
2026-04-25 14:00 49.14394 -49.42364 36311 ft 469 kts 69°
2026-04-25 14:01 49.16688 -49.33043 36315 ft 469 kts 70°
2026-04-25 14:01 49.18972 -49.23715 36312 ft 469 kts 70°
2026-04-25 14:02 49.21251 -49.14369 36313 ft 469 kts 70°
2026-04-25 14:02 49.23503 -49.05090 36317 ft 469 kts 70°
2026-04-25 14:03 49.25768 -48.95725 36325 ft 469 kts 70°
2026-04-25 14:03 49.28022 -48.86362 36327 ft 469 kts 70°
2026-04-25 14:04 49.30268 -48.76990 36326 ft 468 kts 70°
2026-04-25 14:04 49.32492 -48.67677 36329 ft 468 kts 70°
2026-04-25 14:05 49.34719 -48.58305 36326 ft 468 kts 70°
2026-04-25 14:05 49.36940 -48.48919 36333 ft 468 kts 71°
2026-04-25 14:06 49.39151 -48.39537 36341 ft 468 kts 71°
2026-04-25 14:06 49.41338 -48.30213 36344 ft 468 kts 71°
2026-04-25 14:07 49.43537 -48.20802 36345 ft 468 kts 71°
2026-04-25 14:07 49.45724 -48.11395 36347 ft 468 kts 71°
2026-04-25 14:08 49.47908 -48.01966 36353 ft 468 kts 71°
2026-04-25 14:08 49.50069 -47.92593 36356 ft 468 kts 71°
2026-04-25 14:09 49.52235 -47.83155 36358 ft 468 kts 71°
2026-04-25 14:09 49.54399 -47.73686 36362 ft 468 kts 71°
2026-04-25 14:10 49.56553 -47.64218 36365 ft 468 kts 72°
2026-04-25 14:10 49.58698 -47.54742 36367 ft 468 kts 72°
2026-04-25 14:11 49.60835 -47.45264 36372 ft 468 kts 72°
2026-04-25 14:11 49.62951 -47.35841 36371 ft 468 kts 72°
2026-04-25 14:12 49.65072 -47.26343 36377 ft 468 kts 72°
2026-04-25 14:12 49.67187 -47.16836 36381 ft 468 kts 72°
2026-04-25 14:13 49.69279 -47.07389 36386 ft 468 kts 72°
2026-04-25 14:13 49.71375 -46.97879 36390 ft 468 kts 72°
2026-04-25 14:14 49.73466 -46.88350 36392 ft 468 kts 72°
2026-04-25 14:14 49.75547 -46.78822 36395 ft 468 kts 72°
2026-04-25 14:15 49.77622 -46.69278 36397 ft 468 kts 73°
2026-04-25 14:15 49.79674 -46.59793 36401 ft 468 kts 73°
2026-04-25 14:16 49.81735 -46.50222 36410 ft 468 kts 73°
2026-04-25 14:16 49.83789 -46.40644 36409 ft 469 kts 73°
2026-04-25 14:17 49.85836 -46.31049 36418 ft 469 kts 73°
2026-04-25 14:17 49.87878 -46.21435 36420 ft 470 kts 73°
2026-04-25 14:18 49.89900 -46.11871 36420 ft 470 kts 73°
2026-04-25 14:18 49.91929 -46.02223 36429 ft 471 kts 73°
2026-04-25 14:19 49.93953 -45.92555 36430 ft 472 kts 73°
2026-04-25 14:19 49.95974 -45.82858 36433 ft 472 kts 73°
2026-04-25 14:20 49.97991 -45.73131 36438 ft 473 kts 74°
2026-04-25 14:20 49.99989 -45.63443 36438 ft 474 kts 74°
2026-04-25 14:21 50.01995 -45.53675 36443 ft 475 kts 74°
2026-04-25 14:21 50.03999 -45.43864 36446 ft 476 kts 74°
2026-04-25 14:22 50.05996 -45.34044 36451 ft 477 kts 74°
2026-04-25 14:22 50.07988 -45.24197 36457 ft 477 kts 75°
2026-04-25 14:23 50.09976 -45.14319 36460 ft 478 kts 75°
2026-04-25 14:23 50.11945 -45.04490 36463 ft 479 kts 75°
2026-04-25 14:24 50.13922 -44.94569 36466 ft 479 kts 75°
2026-04-25 14:24 50.15891 -44.84639 36473 ft 480 kts 75°
2026-04-25 14:25 50.17854 -44.74686 36472 ft 480 kts 76°
2026-04-25 14:25 50.19809 -44.64724 36478 ft 480 kts 76°
2026-04-25 14:26 50.21744 -44.54812 36478 ft 480 kts 76°
2026-04-25 14:26 50.23683 -44.44825 36482 ft 481 kts 76°
2026-04-25 14:27 50.25615 -44.34824 36486 ft 481 kts 76°
2026-04-25 14:27 50.27536 -44.24829 36488 ft 481 kts 77°
2026-04-25 14:28 50.29453 -44.14798 36493 ft 481 kts 77°
2026-04-25 14:28 50.31357 -44.04785 36498 ft 481 kts 77°
2026-04-25 14:29 50.33244 -43.94809 36503 ft 481 kts 77°
2026-04-25 14:29 50.35134 -43.84759 36507 ft 481 kts 77°
2026-04-25 14:30 50.37015 -43.74708 36509 ft 481 kts 77°
2026-04-25 14:30 50.39820 -43.59611 36508 ft 481 kts 78°
2026-04-25 14:31 50.41678 -43.49542 36520 ft 481 kts 78°
2026-04-25 14:31 50.43516 -43.39530 36527 ft 481 kts 78°
2026-04-25 14:32 50.45359 -43.29437 36525 ft 481 kts 78°
2026-04-25 14:32 50.47192 -43.19339 36529 ft 481 kts 78°
2026-04-25 14:33 50.49015 -43.09242 36531 ft 481 kts 78°
2026-04-25 14:33 50.50817 -42.99206 36536 ft 481 kts 78°
2026-04-25 14:34 50.52622 -42.89097 36535 ft 480 kts 78°
2026-04-25 14:34 50.54417 -42.78988 36539 ft 480 kts 79°
2026-04-25 14:35 50.56202 -42.68876 36539 ft 480 kts 79°
2026-04-25 14:35 50.57964 -42.58839 36548 ft 480 kts 79°
2026-04-25 14:36 50.59731 -42.48716 36553 ft 479 kts 79°
2026-04-25 14:36 50.61487 -42.38595 36550 ft 479 kts 79°
2026-04-25 14:37 50.63235 -42.28465 36555 ft 479 kts 79°
2026-04-25 14:37 50.64960 -42.18413 36561 ft 479 kts 79°
2026-04-25 14:38 50.66689 -42.08276 36561 ft 479 kts 79°
2026-04-25 14:38 50.68407 -41.98138 36566 ft 479 kts 79°
2026-04-25 14:39 50.70117 -41.87992 36568 ft 479 kts 79°
2026-04-25 14:39 50.71818 -41.77843 36572 ft 479 kts 79°
2026-04-25 14:40 50.73511 -41.67678 36576 ft 479 kts 79°
2026-04-25 14:40 50.75183 -41.57579 36572 ft 479 kts 79°
2026-04-25 14:41 50.76857 -41.47406 36575 ft 479 kts 80°
2026-04-25 14:41 50.78525 -41.37214 36581 ft 479 kts 80°
2026-04-25 14:42 50.79634 -41.30401 36581 ft 479 kts 80°
2026-04-25 14:42 50.81833 -41.16817 36592 ft 480 kts 80°
2026-04-25 14:43 50.83466 -41.06651 36590 ft 480 kts 80°
2026-04-25 14:43 50.85102 -40.96406 36593 ft 481 kts 80°
2026-04-25 14:44 50.86731 -40.86142 36594 ft 481 kts 80°
2026-04-25 14:44 50.88354 -40.75857 36595 ft 481 kts 80°
2026-04-25 14:45 50.89965 -40.65577 36605 ft 481 kts 80°
2026-04-25 14:45 50.91569 -40.55278 36605 ft 481 kts 80°
2026-04-25 14:46 50.93165 -40.44971 36609 ft 482 kts 80°
2026-04-25 14:46 50.94747 -40.34726 36607 ft 482 kts 80°
2026-04-25 14:47 50.95810 -40.27817 36609 ft 482 kts 81°
2026-04-25 14:47 50.97913 -40.14065 36613 ft 482 kts 81°
2026-04-25 14:48 50.99485 -40.03706 36614 ft 483 kts 81°
2026-04-25 14:48 51.01315 -39.93503 36618 ft 488 kts 72°
2026-04-25 14:49 51.03977 -39.83560 36620 ft 489 kts 71°
2026-04-25 14:49 51.06603 -39.73578 36631 ft 489 kts 72°
2026-04-25 14:50 51.09137 -39.63542 36630 ft 489 kts 72°
2026-04-25 14:50 51.11649 -39.53458 36635 ft 490 kts 72°
2026-04-25 14:51 51.14149 -39.43369 36643 ft 490 kts 73°
2026-04-25 14:51 51.16626 -39.33312 36643 ft 491 kts 73°
2026-04-25 14:52 51.19108 -39.23176 36640 ft 491 kts 73°
2026-04-25 14:52 51.21166 -39.14739 36645 ft 491 kts 73°
2026-04-25 14:53 51.24053 -39.02844 36655 ft 492 kts 73°
2026-04-25 14:53 51.26513 -38.92661 36660 ft 492 kts 73°
2026-04-25 14:54 51.28966 -38.82457 36669 ft 492 kts 73°
2026-04-25 14:54 51.31392 -38.72315 36673 ft 492 kts 73°
2026-04-25 14:55 51.33831 -38.62075 36678 ft 492 kts 73°
2026-04-25 14:55 51.36258 -38.51837 36681 ft 493 kts 73°
2026-04-25 14:56 51.38681 -38.41565 36688 ft 493 kts 73°
2026-04-25 14:56 51.41095 -38.31286 36693 ft 493 kts 73°
2026-04-25 14:57 51.43483 -38.21064 36699 ft 493 kts 73°
2026-04-25 14:57 51.45881 -38.10754 36706 ft 493 kts 73°
2026-04-25 14:58 51.48268 -38.00440 36708 ft 493 kts 73°
2026-04-25 14:58 51.50645 -37.90119 36721 ft 493 kts 73°
2026-04-25 14:59 51.53013 -37.79788 36715 ft 493 kts 73°
2026-04-25 14:59 51.55358 -37.69506 36723 ft 493 kts 73°
2026-04-25 15:00 51.57709 -37.59147 36730 ft 494 kts 73°
2026-04-25 15:00 51.60053 -37.48767 36732 ft 494 kts 73°
2026-04-25 15:01 51.62390 -37.38371 36739 ft 494 kts 73°
2026-04-25 15:01 51.64703 -37.28029 36737 ft 495 kts 73°
2026-04-25 15:02 51.67025 -37.17594 36752 ft 495 kts 73°
2026-04-25 15:02 51.69336 -37.07153 36756 ft 495 kts 73°
2026-04-25 15:03 51.71639 -36.96699 36763 ft 495 kts 73°
2026-04-25 15:03 51.73918 -36.86303 36770 ft 495 kts 73°
2026-04-25 15:04 51.76202 -36.75828 36771 ft 495 kts 74°
2026-04-25 15:04 51.78478 -36.65338 36773 ft 495 kts 74°
2026-04-25 15:05 51.80746 -36.54832 36780 ft 495 kts 74°
2026-04-25 15:06 51.84132 -36.39043 36787 ft 496 kts 74°
2026-04-25 15:06 51.86379 -36.28501 36789 ft 496 kts 74°
2026-04-25 15:07 51.88599 -36.18028 36797 ft 496 kts 74°
2026-04-25 15:07 51.90828 -36.07460 36800 ft 496 kts 74°
2026-04-25 15:08 51.93047 -35.96883 36805 ft 496 kts 74°
2026-04-25 15:08 51.95258 -35.86289 36810 ft 497 kts 75°
2026-04-25 15:09 51.97450 -35.75725 36809 ft 497 kts 75°
2026-04-25 15:09 52.00739 -35.59777 36824 ft 497 kts 75°
2026-04-25 15:10 52.02923 -35.49113 36826 ft 498 kts 75°
2026-04-25 15:11 52.06184 -35.33085 36833 ft 499 kts 75°
2026-04-25 15:11 52.08334 -35.22445 36841 ft 499 kts 75°
2026-04-25 15:12 52.11568 -35.06333 36845 ft 500 kts 75°
2026-04-25 15:12 52.12990 -34.99205 36849 ft 500 kts 75°
2026-04-25 15:13 52.16922 -34.79359 36854 ft 502 kts 75°
2026-04-25 15:14 52.19036 -34.68606 36857 ft 502 kts 75°
2026-04-25 15:14 52.21156 -34.57760 36858 ft 502 kts 75°
2026-04-25 15:15 52.23267 -34.46900 36862 ft 503 kts 75°
2026-04-25 15:15 52.25369 -34.36019 36865 ft 503 kts 75°
2026-04-25 15:16 52.27464 -34.25120 36867 ft 503 kts 75°
2026-04-25 15:16 52.30571 -34.08832 36870 ft 503 kts 75°
2026-04-25 15:17 52.33674 -33.92427 36874 ft 504 kts 75°
2026-04-25 15:18 52.35730 -33.81477 36880 ft 504 kts 75°
2026-04-25 15:18 52.38452 -33.66875 36880 ft 504 kts 75°
2026-04-25 15:19 52.40143 -33.57751 36885 ft 504 kts 75°
2026-04-25 15:19 52.42511 -33.44892 36886 ft 504 kts 75°
2026-04-25 15:20 52.44512 -33.33958 36894 ft 504 kts 75°
2026-04-25 15:20 52.46517 -33.22937 36890 ft 505 kts 75°
2026-04-25 15:21 52.48514 -33.11895 36893 ft 505 kts 75°
2026-04-25 15:21 52.50821 -32.99052 36898 ft 505 kts 75°
2026-04-25 15:22 52.52462 -32.89865 36900 ft 505 kts 75°
2026-04-25 15:22 52.54428 -32.78790 36902 ft 505 kts 75°
2026-04-25 15:23 52.56384 -32.67708 36910 ft 505 kts 75°
2026-04-25 15:23 52.58329 -32.56616 36911 ft 505 kts 75°
2026-04-25 15:24 52.60266 -32.45502 36910 ft 505 kts 76°
2026-04-25 15:24 52.61868 -32.36258 36911 ft 506 kts 76°
2026-04-25 15:25 52.64095 -32.23322 36912 ft 506 kts 76°
2026-04-25 15:25 52.66002 -32.12175 36914 ft 506 kts 76°
2026-04-25 15:26 52.67901 -32.01001 36917 ft 506 kts 76°
2026-04-25 15:26 52.69786 -31.89833 36920 ft 506 kts 76°
2026-04-25 15:27 52.71653 -31.78708 36918 ft 507 kts 76°
2026-04-25 15:28 52.74451 -31.61892 36922 ft 507 kts 76°
2026-04-25 15:28 52.76306 -31.50654 36924 ft 507 kts 76°
2026-04-25 15:29 52.78150 -31.39411 36924 ft 508 kts 76°
2026-04-25 15:29 52.79973 -31.28221 36926 ft 508 kts 76°
2026-04-25 15:30 52.81798 -31.16940 36927 ft 508 kts 76°
2026-04-25 15:30 52.83613 -31.05651 36926 ft 508 kts 76°
2026-04-25 15:31 52.85418 -30.94342 36931 ft 508 kts 76°
2026-04-25 15:31 52.87213 -30.83022 36928 ft 509 kts 76°
2026-04-25 15:32 52.88985 -30.71771 36934 ft 509 kts 76°
2026-04-25 15:32 52.90759 -30.60425 36933 ft 509 kts 76°
2026-04-25 15:33 52.93403 -30.43382 36934 ft 509 kts 76°
2026-04-25 15:33 52.95160 -30.32002 36936 ft 510 kts 76°
2026-04-25 15:34 52.96900 -30.20674 36938 ft 510 kts 76°
2026-04-25 15:34 52.98360 -30.11116 36937 ft 510 kts 76°
2026-04-25 15:35 53.01072 -29.92054 36942 ft 511 kts 78°
2026-04-25 15:36 53.03566 -29.74850 36938 ft 511 kts 77°
2026-04-25 15:36 53.05227 -29.63361 36939 ft 511 kts 77°
2026-04-25 15:37 53.06851 -29.51940 36940 ft 511 kts 77°
2026-04-25 15:37 53.08471 -29.40431 36942 ft 512 kts 77°
2026-04-25 15:38 53.10075 -29.28896 36944 ft 512 kts 77°
2026-04-25 15:38 53.11666 -29.17351 36944 ft 512 kts 77°
2026-04-25 15:39 53.13246 -29.05794 36943 ft 512 kts 77°
2026-04-25 15:39 53.14815 -28.94227 36945 ft 512 kts 77°
2026-04-25 15:40 53.16110 -28.84618 36944 ft 512 kts 77°
2026-04-25 15:40 53.17908 -28.71160 36944 ft 512 kts 78°
2026-04-25 15:41 53.19442 -28.59579 36949 ft 512 kts 78°
2026-04-25 15:41 53.20965 -28.47985 36948 ft 512 kts 78°
2026-04-25 15:42 53.22469 -28.36447 36945 ft 512 kts 78°
2026-04-25 15:42 53.23971 -28.24829 36946 ft 512 kts 78°
2026-04-25 15:43 53.25462 -28.13201 36950 ft 512 kts 78°
2026-04-25 15:43 53.26941 -28.01566 36952 ft 512 kts 78°
2026-04-25 15:44 53.28400 -27.90002 36947 ft 512 kts 78°
2026-04-25 15:44 53.29857 -27.78352 36946 ft 512 kts 78°
2026-04-25 15:45 53.31304 -27.66683 36951 ft 512 kts 78°
2026-04-25 15:45 53.32497 -27.56985 36947 ft 512 kts 78°
2026-04-25 15:46 53.34163 -27.43323 36948 ft 513 kts 78°
2026-04-25 15:46 53.35566 -27.31715 36947 ft 513 kts 79°
2026-04-25 15:47 53.36968 -27.20006 36948 ft 513 kts 79°
2026-04-25 15:47 53.38360 -27.08286 36951 ft 513 kts 79°
2026-04-25 15:48 53.39738 -26.96571 36949 ft 513 kts 79°
2026-04-25 15:48 53.41098 -26.84909 36947 ft 513 kts 79°
2026-04-25 15:49 53.42454 -26.73171 36945 ft 513 kts 79°
2026-04-25 15:49 53.43799 -26.61423 36944 ft 513 kts 79°
2026-04-25 15:50 53.45133 -26.49667 36947 ft 513 kts 79°
2026-04-25 15:50 53.46456 -26.37892 36961 ft 513 kts 79°
2026-04-25 15:51 53.47546 -26.28112 36953 ft 513 kts 80°
2026-04-25 15:51 53.49059 -26.14409 36946 ft 513 kts 80°
2026-04-25 15:52 53.50347 -26.02615 36944 ft 513 kts 80°
2026-04-25 15:52 53.51622 -25.90829 36949 ft 513 kts 80°
2026-04-25 15:53 53.52880 -25.79092 36955 ft 513 kts 80°
2026-04-25 15:53 53.54134 -25.67272 36955 ft 513 kts 80°
2026-04-25 15:54 53.55375 -25.55453 36947 ft 514 kts 81°
2026-04-25 15:54 53.56607 -25.43613 36945 ft 514 kts 81°
2026-04-25 15:55 53.57818 -25.31846 36951 ft 514 kts 81°
2026-04-25 15:55 53.59025 -25.20006 36956 ft 514 kts 81°
2026-04-25 15:56 53.60222 -25.08142 36954 ft 514 kts 81°
2026-04-25 15:56 53.61406 -24.96275 36947 ft 514 kts 81°
2026-04-25 15:57 53.62571 -24.84486 36950 ft 514 kts 81°
2026-04-25 15:57 53.63732 -24.72609 36959 ft 514 kts 81°
2026-04-25 15:58 53.64881 -24.60719 36954 ft 514 kts 82°
2026-04-25 15:58 53.66018 -24.48836 36950 ft 514 kts 82°
2026-04-25 15:59 53.67144 -24.36929 36966 ft 514 kts 82°
2026-04-25 15:59 53.68250 -24.25115 36953 ft 514 kts 82°
2026-04-25 16:00 53.68988 -24.17150 36964 ft 514 kts 82°
2026-04-25 16:00 53.70442 -24.01290 36959 ft 514 kts 82°
2026-04-25 16:01 53.71521 -23.89358 36961 ft 514 kts 82°
2026-04-25 16:01 53.72580 -23.77515 36960 ft 514 kts 82°
2026-04-25 16:02 53.73636 -23.65575 36957 ft 514 kts 83°
2026-04-25 16:02 53.74680 -23.53625 36961 ft 514 kts 83°
2026-04-25 16:03 53.75710 -23.41680 36971 ft 514 kts 83°
2026-04-25 16:03 53.76730 -23.29719 36963 ft 514 kts 83°
2026-04-25 16:04 53.77731 -23.17843 36961 ft 514 kts 83°
2026-04-25 16:04 53.78725 -23.05889 36960 ft 514 kts 83°
2026-04-25 16:05 53.79711 -22.93966 36946 ft 504 kts 83°
2026-04-25 16:05 53.80701 -22.82597 36876 ft 475 kts 82°
2026-04-25 16:06 53.81217 -22.77105 36855 ft 476 kts 82°
2026-04-25 16:06 53.82352 -22.66030 36825 ft 484 kts 81°
2026-04-25 16:07 53.83549 -22.54855 36808 ft 481 kts 84°
2026-04-25 16:07 53.83786 -22.51133 36960 ft 478 kts 88°
2026-04-25 16:07 53.84046 -22.43596 36969 ft 480 kts 88°
2026-04-25 16:08 53.84617 -22.32342 36972 ft 479 kts 85°
2026-04-25 16:08 53.85408 -22.21220 36970 ft 479 kts 84°
2026-04-25 16:09 53.86249 -22.10045 36969 ft 478 kts 84°
2026-04-25 16:09 53.87079 -21.98882 36973 ft 477 kts 84°
2026-04-25 16:10 53.87894 -21.87727 36974 ft 477 kts 85°
2026-04-25 16:10 53.88698 -21.76571 36974 ft 476 kts 85°
2026-04-25 16:11 53.89489 -21.65440 36975 ft 476 kts 85°
2026-04-25 16:11 53.90265 -21.54376 36978 ft 475 kts 85°
2026-04-25 16:12 53.91036 -21.43239 36984 ft 475 kts 85°
2026-04-25 16:12 53.91795 -21.32122 36988 ft 474 kts 85°
2026-04-25 16:13 53.92543 -21.21001 36992 ft 474 kts 85°
2026-04-25 16:13 53.93280 -21.09899 36991 ft 473 kts 86°
2026-04-25 16:14 53.94000 -20.98880 36994 ft 473 kts 86°
2026-04-25 16:14 53.94715 -20.87788 36997 ft 472 kts 86°
2026-04-25 16:15 53.95419 -20.76713 37000 ft 472 kts 86°
2026-04-25 16:15 53.96112 -20.65636 37002 ft 471 kts 86°
2026-04-25 16:16 53.96794 -20.54579 37008 ft 471 kts 86°
2026-04-25 16:16 53.97462 -20.43593 37005 ft 470 kts 86°
2026-04-25 16:17 53.98128 -20.32554 37009 ft 470 kts 86°
2026-04-25 16:17 53.98786 -20.21529 37011 ft 469 kts 86°
2026-04-25 16:18 53.99435 -20.10504 37014 ft 468 kts 87°
2026-04-25 16:18 54.00005 -19.99497 37020 ft 467 kts 89°
2026-04-25 16:19 54.00198 -19.88488 37017 ft 465 kts 91°
2026-04-25 16:19 54.00421 -19.77512 37027 ft 465 kts 91°
2026-04-25 16:20 54.00748 -19.61133 37028 ft 463 kts 91°
2026-04-25 16:21 54.01027 -19.44731 37032 ft 462 kts 91°
2026-04-25 16:21 54.01198 -19.33818 37031 ft 461 kts 91°
2026-04-25 16:22 54.01359 -19.22908 37035 ft 461 kts 91°
2026-04-25 16:22 54.01510 -19.12106 37033 ft 460 kts 91°
2026-04-25 16:23 54.01651 -19.01239 37038 ft 459 kts 92°
2026-04-25 16:23 54.01782 -18.90392 37038 ft 459 kts 92°
2026-04-25 16:24 54.01903 -18.79560 37041 ft 458 kts 92°
2026-04-25 16:24 54.02014 -18.68813 37045 ft 457 kts 92°
2026-04-25 16:25 54.02116 -18.58023 37047 ft 456 kts 92°
2026-04-25 16:25 54.02208 -18.47224 37052 ft 456 kts 92°
2026-04-25 16:26 54.02290 -18.36452 37059 ft 455 kts 92°
2026-04-25 16:26 54.02362 -18.25697 37061 ft 455 kts 92°
2026-04-25 16:27 54.02424 -18.15025 37060 ft 454 kts 92°
2026-04-25 16:27 54.02477 -18.04306 37066 ft 453 kts 92°
2026-04-25 16:28 54.02521 -17.93597 37065 ft 452 kts 93°
2026-04-25 16:28 54.02555 -17.82914 37070 ft 451 kts 93°
2026-04-25 16:29 54.02579 -17.72248 37072 ft 451 kts 93°
2026-04-25 16:29 54.02594 -17.61667 37072 ft 450 kts 93°
2026-04-25 16:30 54.02599 -17.51036 37077 ft 449 kts 93°
2026-04-25 16:30 54.02596 -17.40426 37075 ft 448 kts 93°
2026-04-25 16:31 54.02583 -17.29826 37081 ft 448 kts 94°
2026-04-25 16:31 54.02560 -17.19251 37084 ft 447 kts 94°
2026-04-25 16:32 54.02529 -17.08756 37081 ft 446 kts 94°
2026-04-25 16:32 54.02488 -16.98218 37083 ft 446 kts 94°
2026-04-25 16:33 54.02438 -16.87673 37082 ft 445 kts 94°
2026-04-25 16:33 54.02379 -16.77150 37088 ft 445 kts 94°
2026-04-25 16:34 54.02311 -16.66727 37087 ft 444 kts 94°
2026-04-25 16:34 54.02234 -16.56226 37089 ft 444 kts 94°
2026-04-25 16:35 54.02148 -16.45738 37095 ft 443 kts 94°
2026-04-25 16:35 54.02052 -16.35234 37098 ft 443 kts 94°
2026-04-25 16:36 54.01948 -16.24761 37099 ft 443 kts 94°
2026-04-25 16:36 54.01835 -16.14294 37101 ft 443 kts 95°
2026-04-25 16:37 54.01713 -16.03896 37108 ft 443 kts 95°
2026-04-25 16:37 54.01580 -15.93392 37110 ft 448 kts 95°
2026-04-25 16:38 54.01434 -15.82692 37110 ft 458 kts 95°
2026-04-25 16:38 54.01277 -15.71755 37113 ft 467 kts 95°
2026-04-25 16:39 54.01108 -15.60643 37112 ft 472 kts 95°
2026-04-25 16:39 54.00932 -15.49585 37111 ft 471 kts 95°
2026-04-25 16:40 54.00742 -15.38456 37114 ft 471 kts 95°
2026-04-25 16:40 54.00541 -15.27329 37117 ft 471 kts 95°
2026-04-25 16:41 54.00331 -15.16223 37121 ft 471 kts 95°
2026-04-25 16:41 54.00009 -14.99599 37127 ft 471 kts 95°
2026-04-25 16:42 53.99984 -14.88458 37134 ft 472 kts 92°
2026-04-25 16:42 54.00060 -14.77298 37120 ft 472 kts 92°
2026-04-25 16:43 54.00096 -14.66132 37125 ft 472 kts 93°
2026-04-25 16:43 54.00107 -14.54988 37137 ft 472 kts 93°
2026-04-25 16:44 54.00106 -14.43905 37134 ft 472 kts 93°
2026-04-25 16:44 54.00095 -14.32755 37135 ft 472 kts 93°
2026-04-25 16:45 54.00074 -14.21604 37142 ft 472 kts 93°
2026-04-25 16:45 54.00043 -14.10456 37139 ft 471 kts 93°
2026-04-25 16:46 54.00346 -13.99371 37141 ft 474 kts 84°
2026-04-25 16:46 54.01239 -13.92037 37145 ft 476 kts 77°
2026-04-25 16:47 54.03513 -13.77551 37142 ft 476 kts 77°
2026-04-25 16:47 54.05200 -13.66660 37144 ft 476 kts 77°
2026-04-25 16:48 54.06877 -13.55754 37147 ft 476 kts 77°
2026-04-25 16:48 54.08532 -13.44921 37147 ft 476 kts 77°
2026-04-25 16:49 54.10185 -13.34020 37150 ft 475 kts 77°
2026-04-25 16:49 54.11830 -13.23104 37150 ft 475 kts 77°
2026-04-25 16:50 54.13461 -13.12200 37152 ft 475 kts 78°
2026-04-25 16:50 54.15073 -13.01357 37150 ft 475 kts 78°
2026-04-25 16:51 54.16684 -12.90441 37154 ft 474 kts 78°
2026-04-25 16:51 54.17754 -12.83146 37152 ft 474 kts 78°
2026-04-25 16:52 54.19873 -12.68612 37152 ft 474 kts 78°
2026-04-25 16:52 54.21440 -12.57768 37149 ft 473 kts 78°
2026-04-25 16:53 54.23785 -12.41402 37156 ft 473 kts 78°
2026-04-25 16:54 54.25337 -12.30478 37156 ft 472 kts 78°
2026-04-25 16:54 54.26877 -12.19555 37161 ft 472 kts 78°
2026-04-25 16:55 54.28406 -12.08630 37207 ft 473 kts 78°
2026-04-25 16:55 54.29158 -12.03229 37432 ft 473 kts 78°
2026-04-25 16:55 54.29918 -11.97758 37659 ft 472 kts 78°
2026-04-25 16:55 54.30672 -11.92303 37876 ft 471 kts 78°
2026-04-25 16:56 54.31436 -11.86844 38067 ft 471 kts 76°
2026-04-25 16:56 54.32612 -11.81598 38247 ft 473 kts 63°
2026-04-25 16:56 54.34393 -11.76867 38397 ft 474 kts 50°
2026-04-25 16:56 54.36707 -11.72852 38550 ft 474 kts 38°
2026-04-25 16:57 54.39318 -11.69422 38702 ft 473 kts 36°
2026-04-25 16:57 54.44573 -11.62742 39002 ft 473 kts 36°
2026-04-25 16:57 54.47220 -11.59385 39116 ft 472 kts 35°
2026-04-25 16:58 54.49973 -11.56307 39162 ft 472 kts 28°
2026-04-25 16:58 54.55812 -11.51197 39171 ft 471 kts 29°
2026-04-25 16:59 54.61410 -11.45332 39170 ft 471 kts 31°
2026-04-25 16:59 54.66428 -11.38158 39171 ft 471 kts 50°
2026-04-25 17:00 54.70555 -11.29449 39162 ft 470 kts 56°
2026-04-25 17:00 54.72187 -11.24577 39167 ft 468 kts 68°
2026-04-25 17:00 54.73195 -11.19251 39166 ft 466 kts 81°
2026-04-25 17:01 54.74741 -11.08333 39173 ft 468 kts 75°
2026-04-25 17:01 54.76859 -10.97684 39169 ft 467 kts 71°
2026-04-25 17:02 54.79094 -10.87183 39171 ft 469 kts 71°
2026-04-25 17:02 54.81533 -10.76609 39171 ft 476 kts 66°
2026-04-25 17:03 54.84440 -10.66217 39168 ft 480 kts 64°
2026-04-25 17:03 54.87422 -10.55873 39169 ft 478 kts 66°
2026-04-25 17:04 54.89906 -10.45187 39176 ft 478 kts 70°
2026-04-25 17:04 54.92265 -10.34474 39155 ft 478 kts 70°
2026-04-25 17:04 54.93452 -10.29077 38906 ft 477 kts 70°
2026-04-25 17:05 54.94637 -10.23703 38825 ft 475 kts 70°
2026-04-25 17:05 54.96474 -10.12742 39047 ft 470 kts 87°
2026-04-25 17:05 54.96628 -10.07080 39151 ft 469 kts 86°
2026-04-25 17:06 54.97837 -9.95959 39177 ft 463 kts 79°
2026-04-25 17:06 54.99226 -9.85123 39180 ft 463 kts 79°
2026-04-25 17:07 55.00593 -9.74143 39178 ft 463 kts 79°
2026-04-25 17:07 55.01926 -9.63184 39183 ft 463 kts 80°
2026-04-25 17:08 55.03245 -9.52210 39180 ft 463 kts 80°
2026-04-25 17:08 55.04554 -9.41225 39182 ft 462 kts 80°
2026-04-25 17:09 55.05843 -9.30320 39183 ft 463 kts 80°
2026-04-25 17:09 55.07132 -9.19325 39182 ft 462 kts 80°
2026-04-25 17:10 55.08411 -9.08328 39186 ft 462 kts 80°
2026-04-25 17:10 55.09680 -8.97319 39188 ft 462 kts 80°
2026-04-25 17:11 55.10930 -8.86381 39188 ft 462 kts 80°
2026-04-25 17:11 55.12178 -8.75374 39189 ft 462 kts 81°
2026-04-25 17:12 55.13415 -8.64370 39190 ft 462 kts 81°
2026-04-25 17:12 55.14642 -8.53357 39189 ft 461 kts 81°
2026-04-25 17:13 55.15449 -8.46064 39189 ft 461 kts 81°
2026-04-25 17:13 55.17053 -8.31431 39189 ft 461 kts 81°
2026-04-25 17:14 55.18251 -8.20399 39183 ft 460 kts 81°
2026-04-25 17:14 55.19425 -8.09476 39183 ft 460 kts 81°
2026-04-25 17:15 55.20606 -7.98401 39179 ft 460 kts 81°
2026-04-25 17:15 55.21769 -7.87394 39174 ft 459 kts 81°
2026-04-25 17:16 55.22913 -7.76468 39171 ft 459 kts 81°
2026-04-25 17:16 55.24054 -7.65461 39171 ft 459 kts 81°
2026-04-25 17:17 55.25184 -7.54463 39165 ft 459 kts 81°
2026-04-25 17:17 55.26305 -7.43454 39160 ft 458 kts 81°
2026-04-25 17:18 55.27407 -7.32524 39161 ft 458 kts 81°
2026-04-25 17:18 55.28507 -7.21516 39161 ft 458 kts 82°
2026-04-25 17:19 55.29596 -7.10503 39160 ft 458 kts 82°
2026-04-25 17:19 55.30676 -6.99488 39162 ft 458 kts 82°
2026-04-25 17:20 55.31744 -6.88476 39166 ft 458 kts 82°
2026-04-25 17:20 55.32796 -6.77524 39170 ft 458 kts 82°
2026-04-25 17:21 55.33846 -6.66492 39176 ft 458 kts 82°
2026-04-25 17:21 55.34884 -6.55468 39179 ft 458 kts 82°
2026-04-25 17:22 55.35567 -6.48160 39181 ft 457 kts 82°
2026-04-25 17:22 55.36931 -6.33402 39191 ft 457 kts 82°
2026-04-25 17:23 55.37933 -6.22435 39192 ft 457 kts 82°
2026-04-25 17:23 55.38931 -6.11392 39193 ft 457 kts 82°
2026-04-25 17:24 55.39919 -6.00351 39192 ft 457 kts 82°
2026-04-25 17:24 55.40732 -5.91164 39198 ft 457 kts 82°
2026-04-25 17:25 55.41859 -5.78327 39197 ft 457 kts 82°
2026-04-25 17:25 55.42821 -5.67300 39203 ft 456 kts 82°
2026-04-25 17:26 55.43563 -5.58100 39201 ft 456 kts 82°
2026-04-25 17:26 55.44574 -5.47073 39203 ft 456 kts 82°
2026-04-25 17:27 55.45591 -5.36027 39203 ft 456 kts 82°
2026-04-25 17:27 55.46453 -5.26868 39198 ft 456 kts 77°
2026-04-25 17:28 55.47958 -5.19889 39193 ft 457 kts 60°